Flag for Brazil Weather past 2 weeks in Juàzeiro do Norte, Ceará, Brazil

Now
75 °F

Scattered showers. Broken clouds.


Feels Like: 75 °F
Forecast: 70 / 94 °F
Wind: 7 mph from East

Location: Fortaleza Aeropor-To

Current Time: Sep 18, 2014 at 8:58:32 AM

Latest Report: Sep 18, 2014 at 8:00 AM


Visibility: N/A

Pressure: 30.01 "Hg

Humidity: 83%

Dew point: 70 °F

Location of Juàzeiro do NorteLocation

Historic Weather in Juàzeiro do Norte — Graph

°F

Juàzeiro do Norte temperature yesterday

Maximum temperature yesterday: 84 °F (at 1:00 PM)
Minimum temperature yesterday: 75 °F (at 4:00 AM)
Average temperature yesterday: 79 °F

Past Weeks' High & Low Weather Summary

 TemperatureHumidityPressure
High88 °F (Sep 7, 11:00 AM)89% (Sep 13, 5:00 AM)30.09 "Hg (Sep 13, 5:00 AM)
Low73 °F (Sep 9, 3:00 AM)22% (Sep 17, 11:00 AM)29.80 "Hg (Sep 11, 3:00 PM)
Average80 °F65%29.93 "Hg
* Reported Sep 3 7:00 AM — Sep 18 7:00 AM, Juàzeiro do Norte, Weather by CustomWeather, © 2014

Note: Actual official high and low records may vary slightly from our data, if they occured in-between our weather recording intervals... More about our weather records

Advertising

Juàzeiro do Norte weather history for previous 24 hours

 ConditionsComfort  
Time TempWeatherWind HumidityBarometerVisibility
7:00 AM
Sep 18
75 °FRain. Partly sunny.9 mph83%29.98 "Hg2 mi
6:00 AM75 °FSleet. Scattered clouds.10 mph83%29.95 "Hg5 mi
5:00 AM79 °FPassing clouds.15 mph70%29.92 "HgN/A
4:00 AM79 °FPassing clouds.15 mph70%29.92 "HgN/A
3:00 AM77 °FPassing clouds.14 mph79%29.89 "HgN/A
2:00 AM79 °FPassing clouds.16 mph70%29.89 "HgN/A
1:00 AM79 °FPassing clouds.16 mph70%29.89 "HgN/A
12:00 AM79 °FPassing clouds.15 mph74%29.92 "HgN/A
11:00 PM
Sep 17
79 °FPassing clouds.14 mph74%29.95 "HgN/A
10:00 PM79 °FPassing clouds.12 mph74%29.95 "HgN/A
9:00 PM79 °FPassing clouds.13 mph74%29.95 "HgN/A
8:00 PM79 °FClear.13 mph74%29.92 "Hg10 mi
7:00 PM79 °FClear.13 mph70%29.92 "Hg10 mi
6:00 PM79 °FClear.13 mph70%29.89 "Hg10 mi
5:00 PM81 °FSunny.14 mph66%29.89 "Hg10 mi
4:00 PM82 °FSunny.17 mph62%29.89 "Hg10 mi
3:00 PM82 °FPassing clouds.18 mph62%29.89 "HgN/A
2:00 PM84 °FPassing clouds.20 mph58%29.89 "HgN/A
1:00 PM84 °FScattered clouds.23 mph55%29.92 "HgN/A
12:00 PM82 °FBroken clouds.20 mph62%29.95 "HgN/A
11:00 AM77 °FScattered showers. Broken clouds.23 mph22%29.98 "HgN/A
10:00 AM82 °FPartly sunny.20 mph62%30.01 "HgN/A
9:00 AM77 °FPartly sunny.14 mph83%30.01 "HgN/A
8:00 AM81 °FPartly sunny.20 mph66%29.98 "HgN/A
Weather by CustomWeather, © 2014

See weather overviewHow to use our weather pages